Location: Norton
(51.3000°N, 0.8167°E)
Time: 18:05:17
(UTC+00:00)

H-2A R/B - Pass Details

Date: 03 March 2021
Orbit: 732 x 837 km, 98.2° (Epoch: 13 April)

Event Time Altitude Azimuth Distance (km) Brightness Sun altitude
Rises 18:02:05 0° 152° (SSE) 3,372 5.1 -4.1°
Reaches altitude 10° 18:04:26 10° 150° (SSE) 2,446 4.4 -4.4°
Maximum altitude 18:09:49 63° 70° (ENE) 933 2.2 -5.3°
Drops below altitude 10° 18:15:12 10° 351° (N) 2,453 4.7 -6.1°
Sets 18:17:34 0° 348° (NNW) 3,383 5.5 -6.5°
